Weather History for Wright-Patt AFB, OH

Change the Weather History Date:

Thursday, August 9, 2012

  Actual Average Record
Temperature  
Mean Temperature 76 °F -  
Max Temperature 84 °F 81 °F 99 °F (2007)
Min Temperature 67 °F 61 °F 53 °F (2002)
Cooling Degree Days 10    
Growing Degree Days 26 (Base 50)    
Moisture  
Dew Point 64 °F    
Average Humidity 73    
Maximum Humidity 89    
Minimum Humidity 44    
Precipitation  
Precipitation 0.16 in - - ()
Sea Level Pressure  
Sea Level Pressure 29.89 in    
Wind  
Wind Speed 8 mph (WNW)    
Max Wind Speed 17 mph    
Max Gust Speed 23 mph    
Visibility 10 miles    
Events Rain , Thunderstorm    
Averages and records for this station are not official NWS values.
T = Trace of Precipitation, MM = Missing Value Source: NWS Daily Summary

Daily Weather History Graph

Daily Weather History Graph

Search for Another Location

Airport:

Trip Planner

Search our weather history database for the weather conditions in past years. The results will help you decide how hot, cold, wet, or windy it might be!

Date:

Astronomy

Aug. 09, 2012 Rise Set
Actual Time 6:42 AM EDT 8:39 PM EDT
Civil Twilight 6:13 AM EDT 9:08 PM EDT
Nautical Twilight 5:37 AM EDT 9:44 PM EDT
Astronomical Twilight 4:58 AM EDT 10:23 PM EDT
Moon No Moon Rise 2:22 PM EDT (8/9)
Length of Visible Light 14h 55m
Length of Day
13h 56m
Waning Gibbous, 51% of the Moon is Illuminated
Aug 9
Waning Gibbous
Aug 9
Last Quarter
Aug 17
New
Aug 24
First Quarter
Aug 31
Full

Hourly Weather History & Observations

Time (EDT) Temp. Heat Index Dew Point Humidity Pressure Visibility Wind Dir Wind Speed Gust Speed Precip Events Conditions
12:30 AM 73.4 °F - 68.0 °F 83% 29.95 in 10.0 mi Variable 1.2 mph - N/A Thunderstorm Mostly Cloudy
12:58 AM 77.2 °F - 65.3 °F 67% 29.96 in 10.0 mi West 17.3 mph - N/A Rain , Thunderstorm Light Thunderstorms and Rain
1:20 AM 73.4 °F - 64.4 °F 73% 29.98 in 10.0 mi SSW 11.5 mph - N/A Rain , Thunderstorm Light Thunderstorms and Rain
1:47 AM 69.8 °F - 64.4 °F 83% 29.96 in 10.0 mi ESE 4.6 mph - N/A Rain , Thunderstorm Light Rain
1:56 AM 70.9 °F - 65.7 °F 83% 29.93 in 10.0 mi East 6.9 mph - 0.01 in   Mostly Cloudy
2:09 AM 69.8 °F - 66.2 °F 88% 29.92 in 10.0 mi NNE 11.5 mph - N/A Rain Light Rain
2:13 AM 69.8 °F - 66.2 °F 88% 29.91 in 10.0 mi NE 11.5 mph - N/A Rain , Thunderstorm Light Thunderstorms and Rain
2:55 AM 70.3 °F - 66.7 °F 88% 29.93 in 9.0 mi NW 12.7 mph 17.3 mph 0.01 in Rain Light Rain
3:04 AM 71.6 °F - 66.2 °F 83% 29.94 in 10.0 mi Variable 5.8 mph - N/A Rain , Thunderstorm Light Thunderstorms and Rain
3:55 AM 70.2 °F - 66.9 °F 89% 29.90 in 10.0 mi ESE 9.2 mph - 0.07 in Thunderstorm Thunderstorm
4:08 AM 69.8 °F - 66.2 °F 88% 29.91 in 10.0 mi ESE 8.1 mph - N/A Thunderstorm Mostly Cloudy
4:30 AM 69.8 °F - 66.2 °F 88% 29.90 in 10.0 mi Calm Calm - N/A   Mostly Cloudy
4:55 AM 70.0 °F - 64.9 °F 84% 29.88 in 10.0 mi SE 3.5 mph - N/A   Mostly Cloudy
5:55 AM 70.3 °F - 66.0 °F 86% 29.91 in 10.0 mi NNW 5.8 mph - N/A   Overcast
6:55 AM 70.5 °F - 66.0 °F 86% 29.94 in 6.0 mi NW 5.8 mph - N/A Rain Light Rain
7:12 AM 69.8 °F - 64.4 °F 83% 29.94 in 10.0 mi NW 8.1 mph - N/A   Overcast
7:26 AM 71.6 °F - 64.4 °F 78% 29.96 in 10.0 mi WNW 9.2 mph - N/A Thunderstorm Overcast
7:36 AM 71.6 °F - 64.4 °F 78% 29.98 in 10.0 mi West 15.0 mph 20.7 mph N/A Thunderstorm Thunderstorm
7:45 AM 69.8 °F - 62.6 °F 78% 29.99 in 10.0 mi West 15.0 mph 21.9 mph N/A Thunderstorm Thunderstorm
7:50 AM 69.8 °F - 62.6 °F 78% 29.97 in 10.0 mi WNW 16.1 mph 21.9 mph N/A Rain , Thunderstorm Thunderstorms and Rain
7:55 AM 70.0 °F - 63.0 °F 78% 29.96 in 10.0 mi NW 17.3 mph 23.0 mph 0.01 in Rain , Thunderstorm Thunderstorms and Rain
8:00 AM 69.8 °F - 62.6 °F 78% 29.98 in 8.0 mi WNW 12.7 mph 23.0 mph N/A Rain , Thunderstorm Light Thunderstorms and Rain
8:18 AM 68.0 °F - 62.6 °F 83% 29.98 in 8.0 mi WNW 10.4 mph - N/A Thunderstorm Overcast
8:35 AM 68.0 °F - 64.4 °F 88% 29.98 in 10.0 mi NW 8.1 mph - N/A Rain Light Rain
8:39 AM 68.0 °F - 64.4 °F 88% 29.97 in 10.0 mi Variable 4.6 mph - N/A   Partly Cloudy
8:55 AM 67.6 °F - 63.7 °F 87% 29.97 in 10.0 mi Calm Calm - 0.00 in   Mostly Cloudy
9:55 AM 72.1 °F - 63.9 °F 75% 29.94 in 10.0 mi ESE 4.6 mph - N/A   Mostly Cloudy
10:55 AM 78.1 °F - 63.9 °F 61% 29.89 in 10.0 mi ESE 6.9 mph - N/A   Mostly Cloudy
11:55 AM 81.7 °F 83.3 °F 64.6 °F 56% 29.87 in 10.0 mi SE 5.8 mph - N/A   Mostly Cloudy
12:55 PM 84.0 °F 84.0 °F 59.7 °F 44% 29.87 in 10.0 mi SSE 5.8 mph - N/A   Overcast
1:18 PM 84.2 °F 84.4 °F 60.8 °F 45% 29.87 in 10.0 mi ENE 3.5 mph - N/A Rain Light Rain Showers
1:30 PM 84.2 °F 84.4 °F 60.8 °F 45% 29.88 in 10.0 mi Calm Calm - N/A   Mostly Cloudy
1:42 PM 82.4 °F 83.9 °F 64.4 °F 54% 29.87 in 10.0 mi NW 5.8 mph - N/A Thunderstorm Mostly Cloudy
1:55 PM 83.3 °F 84.8 °F 64.8 °F 53% 29.88 in 10.0 mi NW 6.9 mph - 0.01 in Thunderstorm Overcast
2:08 PM 78.8 °F - 66.2 °F 65% 29.87 in 10.0 mi NNW 10.4 mph - N/A Rain , Thunderstorm Light Rain
2:29 PM 77.0 °F - 69.8 °F 78% 29.86 in 10.0 mi North 9.2 mph - N/A   Mostly Cloudy
2:55 PM 78.4 °F - 68.9 °F 72% 29.86 in 10.0 mi North 9.2 mph - 0.04 in   Mostly Cloudy
3:55 PM 82.8 °F 83.4 °F 62.1 °F 49% 29.82 in 10.0 mi Calm Calm - N/A   Scattered Clouds
4:55 PM 83.1 °F 83.7 °F 61.3 °F 48% 29.80 in 10.0 mi North 4.6 mph - N/A   Mostly Cloudy
5:55 PM 82.9 °F 84.0 °F 63.0 °F 51% 29.79 in 10.0 mi ESE 3.5 mph - N/A   Mostly Cloudy
6:55 PM 81.0 °F 82.5 °F 63.9 °F 56% 29.80 in 10.0 mi Calm Calm - N/A   Mostly Cloudy
7:55 PM 79.5 °F - 58.1 °F 48% 29.79 in 10.0 mi South 9.2 mph - N/A   Mostly Cloudy
8:09 PM 78.8 °F - 59.0 °F 51% 29.80 in 10.0 mi South 13.8 mph - N/A Rain Light Rain
8:30 PM 75.2 °F - 60.8 °F 61% 29.81 in 10.0 mi South 8.1 mph - N/A   Mostly Cloudy
8:55 PM 74.3 °F - 61.9 °F 65% 29.82 in 10.0 mi SSW 9.2 mph - 0.00 in Rain Light Rain
9:25 PM 71.6 °F - 64.4 °F 78% 29.81 in 10.0 mi SSW 9.2 mph - N/A Rain Light Rain
9:55 PM 70.5 °F - 64.2 °F 80% 29.79 in 10.0 mi ESE 6.9 mph - 0.01 in   Mostly Cloudy
10:55 PM 69.8 °F - 64.6 °F 83% 29.78 in 10.0 mi SSE 5.8 mph - N/A   Mostly Cloudy
11:55 PM 69.3 °F - 64.0 °F 83% 29.75 in 10.0 mi Calm Calm - N/A   Mostly Cloudy